Wind_Speed
30 31 31 31 32 33 33 33 33 33 34 35 35 34 33 34 34 35 35 36 36 36 37 37 37 37 37 38 38 38 37 37 37 37 37 37 36 37 37 37 36 36 37 37
30 31 30 31 32 33 34 34 34 34 35 35 35 35 34 34 34 35 36 37 37 36 37 37 37 38 39 39 39 39 39 39 39 38 38 38 38 38 39 39 38 38 39 39
29 29 30 30 30 31 33 34 34 34 35 36 37 36 35 34 35 35 36 37 37 37 37 37 38 38 39 39 40 40 39 39 39 39 39 40 40 40 40 40 40 40 39 40
29 29 29 29 30 30 32 32 33 34 36 37 37 39 35 35 36 36 36 37 38 38 38 38 38 38 38 39 39 39 40 40 39 40 40 41 41 41 41 41 40 40 40 40
27 27 28 29 29 30 31 32 33 34 35 37 37 39 38 35 36 36 36 37 37 38 38 38 38 38 38 39 40 40 40 41 41 41 41 42 41 41 41 41 41 40 40 40
26 26 27 27 27 29 30 32 33 34 36 37 36 38 38 36 35 35 36 36 36 36 37 38 39 39 39 39 40 40 41 41 42 42 42 42 42 41 41 41 41 40 40 39
25 26 26 27 27 28 29 31 32 34 35 37 36 37 37 35 34 34 34 35 35 36 37 37 39 40 40 40 40 41 42 42 42 42 42 42 42 41 41 41 40 39 39 39
26 26 26 27 28 28 28 30 31 34 35 35 35 36 34 33 33 33 34 35 35 36 36 37 38 39 40 41 41 42 42 42 42 42 42 42 41 41 41 41 41 40 40 40
28 27 27 27 28 28 29 29 30 32 34 35 35 35 34 33 33 33 33 33 34 34 35 36 38 39 39 40 40 41 42 42 42 42 42 42 42 41 42 42 42 41 41 40
28 28 27 27 27 27 28 29 29 31 33 36 37 35 34 34 34 34 33 33 33 34 35 36 37 38 39 40 40 40 40 41 41 41 41 41 41 42 42 42 42 41 41 41
29 29 28 28 28 28 28 28 29 31 32 35 37 36 35 34 34 34 34 34 34 33 34 35 36 38 39 40 40 40 40 40 40 41 41 41 41 42 42 42 41 42 42 42
28 29 29 29 28 29 30 30 30 31 32 34 36 37 35 35 35 35 34 34 34 34 35 35 35 37 38 40 40 40 40 40 41 41 41 42 42 42 42 42 42 42 42 42
29 29 30 29 29 30 31 31 31 33 34 35 36 36 35 36 35 35 35 34 34 34 35 35 35 36 37 38 39 40 40 40 41 41 42 42 42 43 42 42 42 43 42 42
29 30 31 31 31 31 31 31 31 32 34 36 36 36 35 35 35 35 35 35 35 35 35 36 36 36 37 38 38 39 40 40 41 42 42 41 42 42 43 43 43 44 43 43
30 31 31 31 32 33 33 33 33 34 34 36 36 36 36 35 35 36 36 36 36 36 36 37 37 37 37 38 38 39 40 40 41 42 42 41 42 43 43 43 43 44 44 44
31 32 32 33 33 34 35 35 35 35 36 38 38 37 35 36 35 36 37 38 38 38 37 37 37 37 38 38 39 39 40 41 41 42 42 42 42 42 42 42 42 43 44 44
33 34 34 34 35 36 37 35 37 38 37 38 38 37 35 36 36 37 38 38 38 38 38 38 38 38 38 39 39 40 40 41 41 41 42 42 42 42 42 42 42 43 42 43
34 35 36 36 37 39 37 36 38 39 39 38 38 37 36 36 37 38 39 39 38 38 39 39 38 38 39 39 39 40 41 42 42 42 42 43 43 42 42 42 42 42 42 42
35 35 37 38 39 40 38 37 38 39 38 37 39 39 38 38 39 38 39 40 40 39 40 40 40 39 39 40 40 41 41 42 42 42 42 42 42 41 41 42 42 42 42 42
36 36 38 39 41 41 38 38 38 39 39 38 39 39 39 40 40 39 39 40 41 41 42 42 41 40 40 40 40 41 42 42 42 42 41 42 41 41 41 41 41 41 42 42
36 37 38 39 41 41 39 39 39 40 40 38 38 39 40 40 40 40 40 40 41 42 42 42 42 41 41 41 41 41 42 42 42 42 42 41 41 41 41 41 41 41 41 42
37 37 38 39 40 40 39 39 39 39 39 38 38 38 38 39 40 40 40 41 42 42 42 42 42 42 42 41 41 41 41 42 42 42 42 42 41 41 41 41 42 41 41 41
37 37 38 39 39 39 39 39 40 40 40 39 39 38 38 39 39 40 40 40 41 42 42 42 43 42 42 42 42 41 41 42 42 42 42 42 42 42 42 42 42 42 42 42
37 37 36 37 38 39 40 40 41 41 42 41 41 40 38 38 38 38 39 40 40 40 41 41 42 42 42 42 42 42 42 42 42 42 42 43 43 43 43 43 43 43 42 42
37 36 36 37 37 38 39 40 40 40 40 40 40 39 39 38 38 38 39 39 39 39 39 40 41 41 41 41 42 42 43 43 43 43 43 43 44 44 43 43 44 43 43 42
37 37 36 37 37 38 38 38 39 39 39 40 39 38 38 39 38 38 37 37 38 38 38 39 39 39 40 41 42 42 42 42 43 43 43 43 43 44 44 44 44 43 43 43
Wind_Direction
272 270 270 270 268 268 268 267 266 264 263 263 262 261 260 260 260 259 258 257 257 258 259 258 260 260 259 259 259 258 258 258 258 258 260 261 261 261 261 261 262 264 265 266
272 271 271 270 268 267 267 267 267 265 264 264 264 262 261 261 262 262 261 259 259 260 260 259 260 261 261 261 260 259 259 260 260 260 260 261 262 262 261 261 263 264 265 266
273 273 272 271 270 267 267 267 267 266 265 265 265 263 261 261 262 263 262 261 261 262 260 261 261 261 261 261 261 259 260 261 261 261 261 261 262 262 261 261 263 264 265 266
274 274 273 271 271 270 269 268 267 267 266 265 265 265 261 261 262 263 263 263 263 262 261 261 262 262 261 261 260 259 261 262 262 262 262 262 262 262 261 262 262 263 264 265
278 278 276 273 272 271 271 269 268 267 267 267 265 267 265 263 263 264 264 264 264 263 261 260 261 261 261 261 261 261 261 261 262 262 262 262 262 262 262 262 262 263 263 264
279 278 277 275 272 271 271 271 269 268 268 268 269 269 268 266 266 265 264 264 263 263 262 261 261 261 261 261 261 261 261 262 262 262 262 262 262 262 261 261 262 262 262 263
277 276 275 274 273 272 273 273 273 272 269 269 269 269 270 270 267 265 265 264 264 264 264 263 262 262 261 261 262 261 261 261 262 262 262 261 261 260 260 260 261 261 261 262
279 275 275 275 275 275 274 275 275 275 274 273 270 270 271 271 270 268 267 266 264 264 264 264 263 262 262 262 262 261 261 261 261 261 261 261 260 259 258 259 259 259 261 262
281 277 276 276 276 276 275 275 276 276 276 274 273 273 273 273 273 272 270 269 266 265 264 264 264 263 263 262 263 262 262 261 261 262 262 261 260 259 258 258 258 259 260 261
281 279 276 277 277 276 276 276 276 275 276 276 276 277 278 278 276 274 272 269 268 266 266 265 265 264 264 263 264 264 263 263 262 262 262 261 260 260 259 258 259 259 259 259
281 280 278 276 277 277 277 276 276 274 275 277 279 279 280 279 277 276 273 272 270 268 268 268 268 266 265 265 265 264 264 263 262 262 261 260 260 260 259 259 259 259 259 259
281 281 279 278 278 277 276 276 275 274 275 278 280 281 281 280 279 277 275 273 271 270 271 270 270 268 267 266 266 265 264 264 263 262 261 260 260 260 260 261 260 260 259 260
281 281 280 277 276 276 277 277 276 275 275 276 278 281 282 281 279 278 276 273 271 270 271 271 271 270 269 268 267 266 265 265 264 263 262 261 261 261 261 261 260 259 259 260
280 279 279 280 282 280 278 277 278 277 276 277 278 281 281 280 278 276 275 273 272 272 272 271 272 271 270 269 268 267 265 265 265 264 263 262 262 262 262 262 260 259 259 260
279 279 279 280 281 280 278 277 277 277 278 279 280 280 280 280 279 276 274 274 274 274 273 272 273 272 270 269 269 268 267 266 265 264 264 264 264 263 262 261 260 260 259 260
279 280 280 280 280 279 279 279 279 279 279 280 280 280 281 280 278 276 274 273 273 274 274 275 274 273 271 270 268 268 268 268 266 264 264 265 265 264 263 261 260 260 260 260
279 280 281 281 281 281 280 282 282 281 279 280 280 281 280 278 276 274 273 274 274 273 274 274 275 274 272 270 268 267 267 267 266 265 264 264 264 264 264 263 261 261 261 261
280 279 280 282 283 281 284 283 282 282 281 280 280 280 279 278 276 273 273 274 274 273 272 272 273 274 272 270 269 268 267 265 264 265 264 264 263 263 263 263 262 262 262 261
280 280 281 282 284 285 285 286 285 285 282 281 281 281 280 278 276 274 273 273 272 271 270 271 273 274 273 271 269 268 267 266 266 266 265 264 264 264 264 264 263 263 262 262
281 281 281 282 283 284 288 287 286 285 283 283 283 282 281 279 277 275 274 274 272 272 272 272 272 272 273 272 270 269 268 267 266 265 264 264 264 264 264 264 264 263 263 263
281 282 282 283 283 285 288 287 287 287 288 286 285 283 282 280 278 276 274 274 275 274 273 273 273 273 273 272 271 270 267 266 265 263 263 264 264 264 264 264 265 264 264 264
281 282 282 283 283 286 288 287 287 287 287 286 285 284 283 281 279 277 276 276 276 276 276 275 275 275 274 273 271 270 268 266 265 263 263 263 264 264 263 263 264 264 264 265
280 281 281 281 283 285 285 285 285 286 287 286 285 284 282 281 279 278 278 277 276 276 276 276 276 275 275 273 272 270 269 267 265 264 263 263 262 263 262 263 264 264 264 265
279 280 281 282 282 283 283 284 284 285 286 286 285 284 283 281 280 280 279 278 278 277 276 276 276 275 275 274 272 270 270 268 267 266 264 263 263 263 263 263 263 264 264 264
280 280 281 281 282 282 283 284 284 285 284 284 284 283 281 281 280 281 280 280 280 279 278 278 277 275 274 273 273 272 271 269 269 267 266 264 263 263 263 263 264 264 264 263
279 280 281 282 283 283 284 284 285 285 284 284 284 282 280 280 281 282 282 282 281 281 280 279 278 276 275 274 273 273 271 271 270 268 267 266 265 264 264 264 264 265 264 264
Height
5670 5671 5671 5671 5670 5671 5671 5671 5672 5674 5674 5674 5676 5678 5680 5680 5681 5682 5684 5685 5687 5688 5689 5689 5690 5691 5692 5693 5694 5695 5696 5697 5698 5699 5700 5701 5701 5702 5702 5703 5703 5704 5705 5705
5662 5663 5663 5662 5661 5661 5662 5662 5663 5665 5665 5665 5666 5668 5671 5671 5672 5673 5674 5676 5677 5679 5680 5681 5681 5682 5683 5684 5684 5685 5687 5687 5688 5689 5690 5691 5691 5692 5692 5693 5693 5694 5695 5695
5653 5655 5654 5653 5653 5653 5653 5654 5655 5656 5657 5657 5657 5658 5662 5663 5663 5664 5665 5666 5667 5669 5670 5671 5672 5672 5673 5674 5674 5675 5677 5677 5678 5679 5679 5680 5681 5682 5682 5683 5684 5684 5685 5685
5646 5646 5646 5645 5645 5645 5645 5646 5646 5646 5646 5647 5649 5647 5653 5654 5655 5655 5656 5657 5658 5659 5660 5661 5661 5662 5663 5663 5663 5665 5666 5667 5667 5668 5669 5669 5670 5671 5672 5672 5673 5674 5674 5675
5639 5639 5638 5638 5638 5637 5637 5637 5638 5637 5637 5637 5639 5637 5641 5645 5646 5647 5647 5647 5647 5648 5649 5650 5651 5652 5652 5653 5653 5654 5655 5656 5656 5657 5657 5658 5659 5659 5660 5661 5662 5663 5663 5664
5632 5632 5631 5631 5631 5630 5629 5630 5629 5629 5628 5628 5631 5629 5630 5634 5636 5637 5637 5637 5637 5637 5638 5639 5640 5641 5642 5642 5643 5643 5644 5645 5645 5646 5646 5647 5648 5648 5649 5650 5651 5652 5653 5654
5626 5625 5624 5624 5623 5623 5622 5622 5621 5620 5618 5619 5621 5620 5622 5625 5626 5627 5627 5627 5627 5627 5628 5628 5629 5630 5631 5632 5632 5633 5633 5633 5634 5634 5635 5636 5636 5637 5638 5639 5640 5642 5643 5644
5619 5619 5618 5617 5616 5616 5615 5615 5614 5612 5611 5612 5612 5611 5615 5616 5616 5616 5616 5616 5616 5617 5617 5618 5618 5619 5620 5620 5621 5621 5621 5622 5623 5623 5624 5625 5625 5626 5627 5628 5630 5631 5632 5633
5611 5612 5611 5610 5609 5608 5607 5607 5606 5604 5602 5602 5602 5604 5606 5607 5607 5606 5606 5606 5606 5606 5607 5607 5607 5608 5609 5610 5610 5610 5610 5611 5612 5612 5613 5614 5615 5615 5616 5618 5619 5620 5621 5622
5604 5604 5604 5603 5602 5601 5601 5599 5598 5596 5594 5593 5594 5595 5597 5598 5597 5597 5596 5596 5596 5596 5597 5597 5597 5597 5598 5599 5599 5599 5600 5601 5601 5601 5602 5603 5604 5605 5606 5607 5608 5609 5610 5612
5597 5596 5597 5596 5595 5595 5594 5593 5590 5589 5587 5586 5584 5589 5589 5588 5588 5587 5587 5586 5586 5586 5586 5586 5586 5586 5587 5587 5588 5589 5589 5590 5591 5591 5591 5592 5593 5594 5595 5596 5597 5598 5600 5601
5589 5588 5588 5588 5588 5586 5585 5584 5583 5582 5580 5578 5576 5581 5580 5579 5578 5577 5577 5577 5577 5577 5577 5576 5576 5576 5576 5577 5577 5578 5578 5579 5579 5580 5580 5581 5582 5583 5584 5585 5586 5587 5589 5590
5581 5580 5580 5580 5581 5580 5577 5577 5575 5573 5572 5570 5569 5573 5571 5570 5569 5568 5568 5567 5567 5567 5567 5566 5566 5566 5566 5566 5566 5566 5567 5567 5568 5568 5569 5569 5570 5571 5572 5574 5575 5576 5577 5578
5573 5572 5572 5572 5571 5570 5569 5569 5567 5564 5562 5561 5561 5562 5563 5560 5559 5558 5557 5557 5557 5557 5557 5556 5556 5556 5555 5555 5555 5555 5556 5556 5556 5557 5557 5558 5559 5560 5561 5562 5563 5564 5565 5566
5564 5564 5563 5563 5562 5560 5560 5559 5558 5555 5554 5552 5552 5552 5553 5551 5550 5549 5548 5547 5547 5546 5546 5546 5546 5545 5545 5545 5544 5544 5545 5545 5545 5545 5546 5546 5547 5548 5549 5549 5550 5551 5552 5554
5556 5555 5555 5554 5553 5551 5550 5550 5548 5547 5545 5543 5542 5543 5544 5541 5539 5538 5537 5536 5536 5536 5535 5535 5534 5534 5534 5534 5533 5533 5533 5533 5533 5533 5534 5534 5535 5536 5536 5537 5538 5539 5540 5541
5548 5547 5545 5544 5544 5540 5540 5542 5540 5538 5536 5534 5532 5534 5533 5530 5529 5528 5527 5526 5525 5525 5524 5524 5523 5523 5522 5522 5522 5522 5521 5521 5522 5522 5522 5522 5523 5524 5524 5525 5526 5527 5527 5528
5540 5538 5535 5534 5533 5530 5535 5533 5530 5527 5526 5524 5522 5522 5521 5519 5518 5517 5516 5515 5514 5514 5513 5512 5512 5511 5510 5509 5509 5509 5509 5509 5509 5510 5510 5510 5511 5511 5512 5513 5513 5514 5515 5515
5530 5528 5525 5524 5521 5520 5524 5522 5519 5516 5515 5515 5512 5511 5510 5508 5506 5507 5505 5504 5503 5502 5501 5501 5500 5499 5498 5498 5497 5497 5497 5497 5497 5497 5497 5497 5498 5498 5499 5500 5501 5501 5502 5503
5521 5518 5516 5513 5510 5509 5514 5512 5507 5505 5504 5505 5501 5499 5498 5496 5495 5497 5494 5492 5491 5490 5489 5489 5488 5487 5486 5486 5485 5485 5484 5484 5484 5484 5484 5485 5485 5486 5487 5488 5488 5489 5490 5491
5511 5508 5506 5503 5500 5500 5503 5500 5497 5495 5495 5492 5489 5487 5486 5484 5484 5483 5481 5480 5479 5478 5477 5476 5475 5475 5474 5473 5473 5472 5472 5471 5471 5471 5471 5472 5473 5473 5474 5475 5476 5477 5477 5478
5500 5497 5496 5493 5490 5493 5492 5488 5487 5484 5482 5479 5477 5475 5474 5473 5471 5470 5469 5468 5467 5466 5465 5464 5463 5462 5461 5460 5460 5459 5459 5459 5459 5458 5459 5459 5460 5460 5461 5462 5463 5464 5464 5465
5489 5489 5486 5485 5485 5483 5479 5477 5475 5472 5470 5468 5466 5464 5462 5461 5459 5458 5457 5455 5454 5453 5452 5451 5450 5449 5448 5447 5446 5446 5446 5445 5446 5446 5446 5446 5447 5447 5448 5449 5450 5451 5451 5452
5479 5477 5475 5474 5473 5471 5468 5465 5463 5460 5458 5457 5455 5453 5451 5449 5447 5446 5444 5443 5442 5440 5439 5438 5437 5436 5435 5434 5433 5433 5433 5432 5432 5432 5433 5433 5434 5434 5435 5436 5436 5437 5438 5439
5468 5466 5464 5462 5462 5459 5457 5454 5452 5449 5447 5445 5443 5441 5439 5437 5436 5434 5432 5431 5429 5428 5426 5425 5424 5423 5422 5421 5420 5419 5419 5419 5419 5419 5419 5420 5420 5421 5422 5422 5422 5423 5424 5425
5458 5456 5454 5452 5451 5448 5446 5443 5440 5438 5436 5434 5432 5430 5428 5426 5424 5422 5421 5419 5417 5416 5414 5413 5411 5410 5409 5408 5407 5406 5406 5405 5405 5405 5406 5406 5407 5407 5408 5409 5409 5409 5410 5411